Wind_Speed
17 15 13 15 9 1 3 9 13 20 25 29 33 38 44 48 50 51 52 52 55 57 57 60 65 65 66 67 70 75 80 85 91 95 94 95 95 89
21 16 13 9 10 9 2 3 9 14 19 24 30 34 38 42 44 46 49 51 53 55 56 60 61 62 63 63 65 73 79 83 88 91 93 97 95 95
28 25 16 9 5 3 5 4 1 6 12 18 24 29 34 37 39 43 46 47 49 51 53 55 58 60 61 63 63 66 70 77 84 88 91 97 98 97
28 28 28 15 5 2 2 3 3 7 7 11 15 22 27 31 35 39 43 45 48 49 51 54 56 58 60 60 61 63 63 66 73 77 83 92 96 100
35 30 27 27 14 4 3 4 4 4 5 12 17 19 23 25 29 35 40 44 47 50 52 53 55 58 60 61 62 62 62 63 66 71 71 76 87 94
42 38 32 25 24 19 9 6 7 7 7 8 10 15 23 29 30 31 34 37 42 48 53 55 56 60 63 63 63 64 64 64 64 67 70 70 73 81
41 39 36 30 23 19 17 15 10 8 11 12 14 14 14 15 20 28 34 39 42 43 45 49 57 61 63 65 67 68 67 66 66 66 67 70 71 72
38 38 36 34 30 24 18 15 13 11 11 9 15 19 21 21 21 22 23 24 26 31 34 43 54 58 61 66 69 70 70 70 70 69 67 68 70 72
41 37 35 34 33 30 24 18 14 11 10 9 11 11 17 23 26 28 28 29 29 32 33 34 41 53 63 65 65 69 71 73 74 74 73 71 71 71
41 38 34 32 30 29 26 23 19 13 11 11 10 10 11 13 19 25 29 29 31 32 32 31 31 38 47 59 65 66 66 68 72 75 76 77 77 75
39 37 35 31 30 28 26 26 22 20 17 14 12 11 11 9 6 12 19 26 30 33 34 29 32 28 30 38 48 60 65 68 68 69 72 75 78 79
37 37 34 31 28 27 26 26 26 24 19 18 18 16 13 11 10 9 9 11 15 23 30 32 33 34 32 30 32 41 51 62 69 71 71 71 72 75
36 35 35 30 27 25 24 22 22 23 23 22 20 18 17 15 15 14 14 15 17 19 21 22 26 29 32 34 36 36 35 45 54 63 70 74 75 76
41 35 35 33 28 24 22 22 21 18 20 21 22 22 20 19 18 17 16 15 15 17 18 21 25 26 27 29 29 36 40 38 38 43 50 59 66 73
48 41 34 33 26 22 21 19 21 21 19 19 21 21 21 20 20 19 20 20 20 20 19 19 20 22 23 26 28 30 31 35 40 40 40 46 48 52
56 49 40 34 28 17 18 18 17 20 21 20 19 21 21 21 22 23 24 23 22 21 22 22 23 22 23 25 24 25 29 30 33 34 40 44 41 42
63 60 50 41 32 22 10 16 15 14 17 18 18 19 21 21 22 23 25 27 27 28 26 25 26 27 27 23 24 24 26 25 27 30 31 31 38 44
68 69 54 44 33 23 10 7 13 13 14 17 18 19 20 22 22 23 24 26 29 30 29 28 26 26 27 25 22 19 20 23 25 24 24 24 26 31
69 74 69 48 36 22 10 5 7 10 12 15 16 17 19 20 22 22 24 28 32 35 32 29 28 27 27 23 22 19 16 18 19 23 22 21 20 25
69 75 78 62 41 26 11 4 3 6 8 11 14 16 18 20 22 23 24 27 31 36 35 33 32 28 27 25 21 20 17 17 16 17 19 19 20 21
68 73 78 74 52 31 15 3 4 4 6 8 11 13 16 18 21 23 25 27 29 34 32 31 30 29 26 26 23 20 19 16 13 12 14 15 17 18
64 69 75 75 60 31 16 8 8 1 5 7 8 12 14 17 20 21 24 27 29 32 33 31 32 31 29 26 24 22 21 20 15 12 10 11 10 12
61 64 70 72 66 37 17 10 9 3 3 6 8 10 13 16 19 20 21 26 29 31 34 33 32 31 30 28 25 23 20 20 18 14 12 12 11 14
Wind_Direction
352 351 0 9 7 261 253 221 212 211 217 221 225 222 219 217 219 220 222 223 224 228 229 228 227 227 230 234 237 239 239 241 243 243 242 241 238 238
8 353 348 350 7 3 2 213 207 209 220 225 226 225 222 222 223 225 226 228 229 230 230 230 230 230 231 233 237 239 240 242 243 245 245 245 242 240
22 24 3 336 342 345 352 340 248 202 214 224 228 230 225 223 225 229 230 231 233 234 235 236 236 235 236 237 238 240 241 240 239 241 242 246 245 244
18 17 21 8 327 335 32 34 304 259 228 221 225 232 234 234 232 232 232 234 236 237 239 240 239 239 239 239 240 242 244 245 245 243 240 240 242 245
26 22 17 26 21 333 262 265 276 277 252 244 243 237 235 236 238 239 240 239 238 239 239 240 243 244 244 243 242 241 242 245 247 245 244 244 241 238
29 26 26 24 31 35 9 316 289 277 268 259 253 249 246 247 245 243 243 245 245 244 243 243 242 243 244 246 245 243 242 243 244 246 245 243 243 241
28 29 28 26 25 21 26 28 9 304 271 259 258 257 257 252 250 252 252 251 253 254 253 250 246 245 244 244 245 245 243 243 243 243 245 244 242 241
25 26 25 28 29 21 12 4 3 5 6 328 277 262 253 251 249 250 253 254 254 252 257 259 257 254 248 245 244 244 244 243 243 243 242 243 242 240
17 19 23 22 23 25 20 11 360 347 347 343 348 309 269 256 250 249 250 253 257 260 261 274 268 253 247 248 246 245 244 243 242 242 242 242 241 240
10 12 13 16 21 18 19 20 17 7 346 340 335 340 335 281 263 254 252 252 256 261 263 269 279 267 257 248 244 245 246 245 245 243 243 242 242 241
6 3 4 9 12 16 19 19 19 23 18 6 349 341 338 351 311 271 264 261 260 262 265 267 270 275 267 258 252 248 246 245 245 246 245 244 243 242
4 356 356 1 5 8 11 19 21 19 18 20 20 12 359 342 331 322 310 296 279 273 270 270 268 269 269 268 264 257 251 246 245 245 246 247 247 245
357 348 346 355 356 0 5 12 18 22 19 19 23 23 17 9 357 342 321 304 292 286 285 281 274 270 269 265 267 265 261 254 250 247 245 245 246 246
355 347 339 345 348 350 357 1 12 19 24 20 20 21 21 17 12 2 350 339 327 316 305 294 286 283 279 272 266 265 264 260 258 254 251 250 249 248
356 346 339 334 340 348 346 355 359 8 16 21 21 16 14 13 12 7 2 357 350 340 331 318 305 298 290 282 276 269 267 265 260 255 254 253 253 253
358 350 342 333 328 344 346 341 354 1 5 10 13 15 11 8 8 10 8 3 356 347 339 331 322 312 300 289 279 277 274 268 267 264 259 255 252 251
0 356 346 340 331 327 350 345 342 355 3 4 9 13 9 5 2 4 5 4 2 356 347 338 331 324 319 312 295 284 273 273 271 269 269 265 256 252
2 359 353 343 336 327 318 339 347 342 358 4 7 9 8 3 360 359 357 360 1 2 357 349 338 331 330 325 314 297 286 277 271 270 270 272 269 260
2 2 1 351 342 336 326 283 337 347 348 2 3 7 8 2 1 1 358 359 359 1 3 357 350 345 341 337 328 324 315 302 284 271 270 268 270 271
3 3 2 359 352 349 349 212 279 341 348 358 1 5 7 2 1 5 7 4 1 2 4 0 359 354 351 351 343 336 333 324 304 282 273 274 274 275
4 4 6 2 4 6 12 131 197 331 341 1 1 5 5 2 3 5 7 11 9 7 11 4 4 4 360 359 357 346 341 345 330 308 298 292 283 276
6 7 7 8 7 14 34 88 153 261 340 345 3 9 7 4 5 6 8 10 14 10 15 13 11 9 8 3 2 2 357 352 345 334 330 320 295 294
7 8 10 15 12 19 39 82 141 165 350 339 360 9 5 3 6 6 9 11 15 15 12 18 16 16 15 14 10 4 1 4 1 343 326 314 307 313
Height
5491 5488 5484 5481 5479 5478 5477 5477 5480 5486 5492 5498 5506 5513 5520 5527 5534 5541 5549 5556 5563 5572 5581 5587 5593 5601 5610 5618 5624 5632 5639 5645 5653 5664 5672 5679 5690 5699
5493 5489 5486 5484 5481 5481 5480 5480 5480 5484 5490 5496 5502 5508 5514 5521 5527 5534 5541 5548 5553 5561 5569 5574 5580 5587 5595 5601 5607 5613 5620 5626 5635 5645 5652 5659 5671 5679
5497 5491 5486 5484 5483 5482 5482 5483 5483 5485 5488 5493 5498 5503 5507 5513 5518 5524 5531 5537 5543 5549 5555 5561 5567 5574 5580 5586 5590 5597 5601 5607 5614 5624 5632 5639 5650 5660
5500 5495 5489 5484 5483 5483 5484 5484 5485 5486 5487 5490 5494 5497 5501 5504 5509 5514 5520 5525 5531 5537 5542 5548 5553 5558 5564 5570 5575 5580 5584 5590 5596 5602 5608 5623 5624 5635
5505 5498 5493 5488 5484 5483 5484 5484 5485 5485 5486 5488 5491 5494 5496 5499 5502 5505 5509 5515 5520 5524 5529 5534 5538 5543 5548 5553 5558 5562 5567 5572 5579 5581 5589 5595 5602 5611
5510 5503 5498 5493 5489 5486 5484 5483 5484 5485 5486 5487 5488 5489 5491 5493 5496 5499 5502 5504 5508 5512 5516 5520 5524 5528 5531 5536 5541 5545 5549 5555 5560 5565 5570 5574 5580 5588
5516 5509 5503 5497 5493 5490 5487 5485 5483 5482 5482 5483 5484 5485 5487 5488 5489 5491 5494 5497 5499 5502 5504 5507 5511 5514 5516 5519 5523 5527 5532 5537 5543 5548 5552 5557 5562 5566
5522 5515 5508 5502 5496 5492 5488 5486 5484 5482 5480 5479 5479 5479 5480 5482 5483 5485 5487 5488 5490 5492 5493 5495 5497 5499 5501 5503 5506 5509 5513 5519 5524 5529 5535 5539 5544 5548
5526 5519 5512 5505 5498 5493 5489 5485 5482 5481 5479 5478 5475 5474 5473 5474 5476 5477 5478 5480 5481 5482 5483 5482 5481 5480 5481 5485 5488 5492 5496 5500 5505 5510 5516 5521 5526 5532
5530 5523 5516 5509 5502 5497 5491 5486 5482 5479 5478 5476 5474 5471 5469 5466 5467 5468 5470 5471 5471 5471 5472 5471 5468 5465 5463 5467 5470 5474 5478 5482 5485 5490 5495 5500 5506 5512
5533 5525 5518 5511 5504 5498 5492 5487 5483 5478 5475 5472 5470 5468 5466 5464 5462 5462 5462 5463 5462 5461 5460 5461 5458 5455 5453 5452 5453 5456 5459 5463 5467 5471 5475 5480 5486 5491
5533 5524 5518 5512 5507 5500 5494 5488 5483 5479 5475 5471 5468 5465 5463 5462 5460 5459 5458 5457 5455 5453 5452 5451 5449 5446 5445 5444 5442 5441 5441 5443 5448 5453 5457 5462 5466 5471
5532 5523 5515 5511 5507 5502 5497 5491 5485 5480 5476 5472 5468 5465 5462 5460 5458 5456 5454 5452 5450 5447 5445 5442 5438 5436 5434 5434 5431 5429 5428 5428 5430 5433 5437 5441 5446 5450
5531 5521 5514 5508 5505 5501 5496 5492 5487 5482 5477 5473 5469 5465 5462 5459 5456 5454 5451 5448 5445 5441 5438 5435 5431 5428 5425 5423 5421 5416 5416 5416 5417 5419 5420 5422 5426 5430
5529 5520 5511 5504 5501 5497 5494 5490 5486 5482 5477 5473 5469 5466 5462 5458 5455 5451 5448 5445 5440 5436 5432 5428 5424 5419 5416 5413 5411 5408 5405 5403 5404 5406 5406 5408 5411 5414
5526 5516 5508 5501 5496 5493 5490 5487 5484 5480 5476 5472 5469 5465 5462 5458 5454 5450 5446 5441 5437 5433 5428 5422 5417 5412 5407 5403 5401 5397 5395 5394 5392 5392 5393 5396 5398 5400
5525 5512 5502 5492 5487 5485 5484 5482 5481 5479 5476 5472 5469 5465 5461 5457 5453 5449 5444 5439 5434 5429 5422 5417 5411 5405 5399 5395 5391 5388 5386 5384 5383 5382 5382 5383 5384 5385
5525 5510 5499 5488 5480 5477 5477 5476 5475 5475 5473 5471 5468 5464 5460 5456 5452 5448 5443 5438 5433 5427 5420 5413 5406 5399 5392 5387 5382 5379 5377 5375 5374 5373 5373 5373 5373 5372
5528 5512 5497 5483 5474 5470 5470 5472 5471 5471 5470 5469 5467 5464 5460 5456 5452 5447 5442 5436 5430 5423 5417 5409 5402 5395 5388 5381 5376 5372 5370 5368 5366 5364 5364 5365 5365 5364
5530 5515 5498 5480 5469 5464 5464 5466 5468 5469 5468 5468 5466 5463 5459 5455 5451 5446 5442 5436 5429 5422 5414 5407 5399 5392 5385 5379 5372 5368 5365 5362 5359 5357 5356 5356 5357 5357
5534 5519 5503 5483 5469 5462 5461 5463 5466 5468 5467 5466 5464 5462 5459 5455 5450 5446 5440 5436 5429 5422 5415 5407 5399 5391 5384 5377 5371 5366 5362 5358 5355 5352 5350 5349 5349 5349
5539 5525 5509 5491 5474 5464 5461 5462 5465 5467 5467 5466 5463 5461 5458 5454 5449 5445 5440 5435 5430 5423 5415 5408 5400 5392 5385 5378 5371 5366 5360 5356 5352 5349 5347 5345 5344 5343
5543 5530 5516 5500 5483 5470 5465 5463 5465 5466 5465 5464 5463 5460 5457 5453 5449 5444 5440 5435 5430 5424 5417 5409 5402 5395 5387 5380 5373 5367 5361 5356 5351 5347 5344 5342 5340 5339